Location: Ergnies
(50.0854°N, 2.0375°E)
Time: 05:47:27
(UTC+00:00)

Cosmos 1484 Rocket - Pass Details

Date: 14 January 2026
Orbit: 439 x 467 km, 97.6° (Epoch: 10 February)

Event Time Altitude Azimuth Distance (km) Brightness Sun altitude
Rises 05:45:51 0° 15° (NNE) 2,451 6.2 -18.5°
Reaches altitude 10° 05:47:54 10° 18° (NNE) 1,578 5.2 -18.2°
Maximum altitude 05:51:16 68° 102° (ESE) 487 2.7 -17.7°
Drops below altitude 10° 05:54:38 10° 186° (S) 1,580 5.2 -17.1°
Sets 05:56:40 0° 189° (S) 2,452 6.2 -16.8°
